Air Resources Laboratory banner image
Air Resources Laboratory web site National Oceanic and Atmospheric Administration (NOAA)

ne roundup


Office: OAX

ASUS43 KOAX 212302
RWRNE

WEATHER ROUNDUP FOR NEBRASKA
NATIONAL WEATHER SERVICE OMAHA NE
600 PM CDT SUN OCT 21 2018

NOTES: SATELLITE DATA IS BEING USED TO AUGMENT CLOUD COVER ABOVE
       12000 FEET.
       "FAIR" INDICATES FEW OR NO CLOUDS BELOW 12,000 FEET WITH NO
       SIGNIFICANT WEATHER AND/OR OBSTRUCTIONS TO VISIBILITY.

  * THESE STATIONS DO NOT REPORT WEATHER SUCH AS RAIN...SNOW OR FOG.

NEZ001>004-019>022-054>056-220000-
NEBRASKA PANHANDLE

CITY           SKY/WX    TMP DP  RH WIND       PRES   REMARKS
SCOTTSBLUFF    SUNNY     73  37  27 NE9       30.04S
ALLIANCE       CLEAR     69  35  28 N7        30.05S
CHADRON        CLEAR     67  35  30 NE9       30.05S
KIMBALL        MOSUNNY   70  22  16 N7        30.08F
SIDNEY         SUNNY     73  29  19 N8        30.06S
$$

NEZ057>060-069>072-079>082-220000-
SOUTHWEST NEBRASKA

CITY           SKY/WX    TMP DP  RH WIND       PRES   REMARKS
NORTH PLATTE   CLEAR     75  38  26 CALM      29.97F
IMPERIAL       FAIR      78  27  15 CALM      30.00S
LEXINGTON      MOCLDY    75  36  24 S12       29.97S
MC COOK        FAIR      75  37  25 S12       29.98F
OGALLALA       CLEAR     78  29  17 CALM      29.99F
$$

NEZ005>010-023>029-035>040-094-220000-
NORTH CENTRAL NEBRASKA

CITY           SKY/WX    TMP DP  RH WIND       PRES   REMARKS
VALENTINE      CLEAR     68  36  30 NE10      30.04R
AINSWORTH      CLEAR     65  37  35 NE8       30.03S HAZE
BROKEN BOW     PTCLDY    70  40  33 S6        29.98S
O'NEILL        CLEAR     67  40  37 N8        30.01R
ORD            CLEAR     73  41  31 N8        29.96S
THEDFORD       CLEAR     73  38  27 N9        30.01S
$$

NEZ041-046>049-061>064-073>077-083>087-220000-
SOUTH CENTRAL NEBRASKA

CITY           SKY/WX    TMP DP  RH WIND       PRES   REMARKS
GRAND ISLAND   CLOUDY    73  43  33 SW12      29.99S
AURORA         CLEAR     72  41  32 SW10G16   29.99S
HASTINGS       CLEAR     73  42  32 SW12G26   29.99F
HEBRON         PTCLDY    69  43  38 S10       30.01F
HOLDREGE       CLEAR     73  40  30 S15       29.99F
KEARNEY *      CLOUDY    73  40  30 S15       29.98S
YORK           CLEAR     72  41  33 SW9       30.00R
$$

NEZ011>018-030>034-042>045-220000-
NORTHEAST NEBRASKA

CITY           SKY/WX    TMP DP  RH WIND       PRES   REMARKS
NORFOLK        CLEAR     69  42  37 NW7       29.97S
ALBION         CLEAR     74  43  33 NW5       29.97S
BLAIR          FAIR      69  41  35 SW10      29.98S
COLUMBUS *     CLEAR     73  42  32 SW8       29.98S
FREMONT        CLEAR     72  39  30 S8        29.99R
TEKAMAH        CLEAR     71  41  33 SW5       29.97S
$$

NEZ050>053-065>068-078-088>093-220000-
SOUTHEAST NEBRASKA

CITY           SKY/WX    TMP DP  RH WIND       PRES   REMARKS
LINCOLN        CLEAR     71  42  35 SW13      30.01R
OMAHA EPPLEY   PTCLDY    69  39  33 S12       29.98S
BEATRICE       CLEAR     67  44  44 S10       30.03S
FALLS CITY     CLEAR     65  40  39 S9        30.05F
NEBRASKA CITY  CLEAR     67  31  26 SW14      30.03S
PLATTSMOUTH    CLEAR     67  40  38 S12       30.01F
$$

NEZ044-045-051>053-067-220000-
OMAHA AREA

CITY           SKY/WX    TMP DP  RH WIND       PRES   REMARKS
EPPLEY FIELD   PTCLDY    69  39  33 S12       29.98S
BLAIR          CLEAR     69  41  35 SW10      29.98S
FREMONT        CLEAR     72  39  30 S8        29.99R
MILLARD        CLEAR     72  42  34 SW8       29.99F
OFFUTT AFB     CLEAR     67  41  38 S9        29.99F
PLATTSMOUTH    CLEAR     67  40  38 S12       30.01F
WAHOO          FAIR      71  40  33 SW9       29.98S
$$


ASUS43 KOAX 212303
RWRNE

WEATHER ROUNDUP FOR NEBRASKA
NATIONAL WEATHER SERVICE OMAHA NE
600 PM CDT SUN OCT 21 2018

NOTES: SATELLITE DATA IS BEING USED TO AUGMENT CLOUD COVER ABOVE
       12000 FEET.
       "FAIR" INDICATES FEW OR NO CLOUDS BELOW 12,000 FEET WITH NO
       SIGNIFICANT WEATHER AND/OR OBSTRUCTIONS TO VISIBILITY.


NEZ001>004-019>022-054>056-220000-
NEBRASKA PANHANDLE

CITY           SKY/WX    TMP DP  RH WIND       PRES   REMARKS
SCOTTSBLUFF    SUNNY     73  37  27 NE9       30.04S
ALLIANCE       CLEAR     69  35  28 N7        30.05S
CHADRON        CLEAR     67  35  30 NE9       30.05S
GORDON         FAIR      66  34  29 NE9       30.06S
KIMBALL        MOSUNNY   70  22  16 N7        30.08F
SIDNEY         SUNNY     73  29  19 N8        30.06S
$$

NEZ057>060-069>072-079>082-220000-
SOUTHWEST NEBRASKA

CITY           SKY/WX    TMP DP  RH WIND       PRES   REMARKS
NORTH PLATTE   CLEAR     75  38  26 CALM      29.97F
IMPERIAL       FAIR      78  27  15 CALM      30.00S
LEXINGTON      MOCLDY    75  36  24 S12       29.97S
MCCOOK         FAIR      75  37  25 S12       29.98F
OGALLALA       CLEAR     78  29  17 CALM      29.99F
$$

NEZ005>010-023>029-035>040-094-220000-
NORTH CENTRAL NEBRASKA

CITY           SKY/WX    TMP DP  RH WIND       PRES   REMARKS
VALENTINE      CLEAR     68  36  30 NE10      30.04R
AINSWORTH      CLEAR     65  37  35 NE8       30.03S HAZE
BROKEN BOW     PTCLDY    70  40  33 S6        29.98S
O'NEILL        CLEAR     67  40  37 N8        30.01R
ORD            CLEAR     73  41  31 N8        29.96S
THEDFORD       CLEAR     72  38  28 NE10      30.02R
$$

NEZ041-046>049-061>064-073>077-083>087-220000-
SOUTH CENTRAL NEBRASKA

CITY           SKY/WX    TMP DP  RH WIND       PRES   REMARKS
GRAND ISLAND   CLOUDY    73  43  33 SW12      29.99S
AURORA         CLEAR     72  41  32 SW10G16   29.99S
HASTINGS       CLEAR     73  42  32 SW12G26   29.99F
HEBRON         PTCLDY    69  43  38 S10       30.01F
HOLDREGE       CLEAR     73  40  30 S15       29.99F
KEARNEY        CLOUDY    73  40  30 S15       29.98S
YORK           CLEAR     72  41  33 SW9       30.00R
$$

NEZ011>018-030>034-042>045-220000-
NORTHEAST NEBRASKA

CITY           SKY/WX    TMP DP  RH WIND       PRES   REMARKS
NORFOLK        CLEAR     69  42  37 NW7       29.97S
ALBION         CLEAR     74  43  33 NW5       29.97S
BLAIR          CLEAR     69  41  35 SW10      29.98S
COLUMBUS       CLEAR     73  42  32 SW8       29.98S
FREMONT        CLEAR     72  39  30 S8        29.99R
TEKAMAH        CLEAR     71  41  33 SW5       29.97S
WAYNE          CLEAR     68  29  23 NW3       29.98R
$$

NEZ050>053-065>068-078-088>093-220000-
SOUTHEAST NEBRASKA

CITY           SKY/WX    TMP DP  RH WIND       PRES   REMARKS
LINCOLN        CLEAR     71  42  35 SW13      30.01R
OMAHA EPPLEY   PTCLDY    69  39  33 S12       29.98S
BEATRICE       CLEAR     67  44  44 S10       30.03S
FALLS CITY     CLEAR     65  40  39 S9        30.05F
NEBRASKA CITY  CLEAR     67  31  26 SW14      30.03S
PLATTSMOUTH    CLEAR     67  40  38 S12       30.01F
$$

NEZ044-045-051>053-067-220000-
OMAHA AREA

CITY           SKY/WX    TMP DP  RH WIND       PRES   REMARKS
OMAHA EPPLEY   PTCLDY    69  39  33 S12       29.98S
BLAIR          CLEAR     69  41  35 SW10      29.98S
FREMONT        CLEAR     72  39  30 S8        29.99R
MILLARD        CLEAR     71  42  35 S6        29.99S
OFFUTT AFB     CLEAR     67  41  38 S9        29.99F
PLATTSMOUTH    CLEAR     67  40  38 S12       30.01F
WAHOO          FAIR      71  40  33 SW9       29.98S
$$


ASUS43 KOAX 212310
RWRNE

WEATHER ROUNDUP FOR NEBRASKA
NATIONAL WEATHER SERVICE OMAHA NE
600 PM CDT SUN OCT 21 2018

NOTES: SATELLITE DATA IS BEING USED TO AUGMENT CLOUD COVER ABOVE
       12000 FEET.
       "FAIR" INDICATES FEW OR NO CLOUDS BELOW 12,000 FEET WITH NO
       SIGNIFICANT WEATHER AND/OR OBSTRUCTIONS TO VISIBILITY.


NEZ001>004-019>022-054>056-220000-
NEBRASKA PANHANDLE

CITY           SKY/WX    TMP DP  RH WIND       PRES   REMARKS
SCOTTSBLUFF    SUNNY     73  37  27 NE9       30.04S
ALLIANCE       CLEAR     69  35  28 N7        30.05S
CHADRON        CLEAR     67  35  30 NE9       30.05S
GORDON         FAIR      66  34  29 NE9       30.06S
KIMBALL        MOSUNNY   70  22  16 N7        30.08F
SIDNEY         SUNNY     73  29  19 N8        30.06S
$$

NEZ057>060-069>072-079>082-220000-
SOUTHWEST NEBRASKA

CITY           SKY/WX    TMP DP  RH WIND       PRES   REMARKS
NORTH PLATTE   CLEAR     75  38  26 CALM      29.97F
IMPERIAL       FAIR      78  27  15 CALM      30.00S
LEXINGTON      MOCLDY    75  36  24 S12       29.97S
MCCOOK         FAIR      75  37  25 S12       29.98F
OGALLALA       CLEAR     78  29  17 CALM      29.99F
$$

NEZ005>010-023>029-035>040-094-220000-
NORTH CENTRAL NEBRASKA

CITY           SKY/WX    TMP DP  RH WIND       PRES   REMARKS
VALENTINE      CLEAR     68  36  30 NE10      30.04R
AINSWORTH      CLEAR     65  37  35 NE8       30.03S HAZE
BROKEN BOW     PTCLDY    70  40  33 S6        29.98S
O'NEILL        CLEAR     67  40  37 N8        30.01R
ORD            CLEAR     73  41  31 N8        29.96S
THEDFORD       CLEAR     72  38  28 NE10      30.02R
$$

NEZ041-046>049-061>064-073>077-083>087-220000-
SOUTH CENTRAL NEBRASKA

CITY           SKY/WX    TMP DP  RH WIND       PRES   REMARKS
GRAND ISLAND   CLOUDY    73  43  33 SW12      29.99S
AURORA         CLEAR     72  41  32 SW10G16   29.99S
HASTINGS       CLEAR     73  42  32 SW12G26   29.99F
HEBRON         PTCLDY    69  43  38 S10       30.01F
HOLDREGE       CLEAR     73  40  30 S15       29.99F
KEARNEY        CLOUDY    73  40  30 S15       29.98S
YORK           CLEAR     72  41  33 SW9       30.00R
$$

NEZ011>018-030>034-042>045-220000-
NORTHEAST NEBRASKA

CITY           SKY/WX    TMP DP  RH WIND       PRES   REMARKS
NORFOLK        CLEAR     69  42  37 NW7       29.97S
ALBION         CLEAR     74  43  33 NW5       29.97S
BLAIR          CLEAR     69  41  35 SW10      29.98S
COLUMBUS       CLEAR     73  42  32 SW8       29.98S
FREMONT        CLEAR     72  39  30 S8        29.99R
TEKAMAH        CLEAR     71  41  33 SW5       29.97S
WAYNE          CLEAR     68  29  23 NW3       29.98R
$$

NEZ050>053-065>068-078-088>093-220000-
SOUTHEAST NEBRASKA

CITY           SKY/WX    TMP DP  RH WIND       PRES   REMARKS
LINCOLN        CLEAR     71  42  35 SW13      30.01R
OMAHA EPPLEY   PTCLDY    69  39  33 S12       29.98S
BEATRICE       CLEAR     67  44  44 S10       30.03S
FALLS CITY     CLEAR     65  40  39 S9        30.05F
NEBRASKA CITY  CLEAR     67  31  26 SW14      30.03S
PLATTSMOUTH    CLEAR     67  40  38 S12       30.01F
$$

NEZ044-045-051>053-067-220000-
OMAHA AREA

CITY           SKY/WX    TMP DP  RH WIND       PRES   REMARKS
OMAHA EPPLEY   PTCLDY    69  39  33 S12       29.98S
BLAIR          CLEAR     69  41  35 SW10      29.98S
FREMONT        CLEAR     72  39  30 S8        29.99R
MILLARD        CLEAR     71  42  35 S6        29.99S
OFFUTT AFB     CLEAR     67  41  38 S9        29.99F
PLATTSMOUTH    CLEAR     67  40  38 S12       30.01F
WAHOO          FAIR      71  40  33 SW9       29.98S
$$




Office: FSD ASUS43 KFSD 212302 RWRSD WEATHER ROUNDUP FOR SOUTH DAKOTA NATIONAL WEATHER SERVICE SIOUX FALLS SD 600 PM CDT SUN OCT 21 2018 NOTE: "FAIR" INDICATES FEW OR NO CLOUDS BELOW 12,000 FEET WITH NO SIGNIFICANT WEATHER AND/OR OBSTRUCTIONS TO VISIBILITY. SDZ001>005-009-010-012>017-220000- NORTHWEST AND NORTH CENTRAL SOUTH DAKOTA CITY SKY/WX TMP DP RH WIND PRES REMARKS BUFFALO N/A 64 18 17 NE7 30.04S FAITH N/A 62 27 26 NE6 30.06S MOBRIDGE PTCLDY 62 33 33 N7 30.03R $$ SDZ012>016-024>037-041>051-057-063-072>074-220000- SOUTHWEST AND SOUTH CENTRAL SOUTH DAKOTA CITY SKY/WX TMP DP RH WIND PRES REMARKS RAPID CTY ARPT CLEAR 64 31 28 E6 30.07S PIERRE CLEAR 65 30 27 N9 30.02S CUSTER CLEAR 58 32 37 E8 30.13R ELLSWORTH AFB CLEAR 64 30 28 E5 30.06S PHILIP CLEAR 66 30 26 E7 30.04S PINE RIDGE CLEAR 68 35 29 NE9 30.06S SPEARFISH FAIR 59 34 38 E8 30.08F WINNER FAIR 65 37 35 N7 30.04R $$ SDZ004>011-016>023-039-040-220000- NORTHEAST SOUTH DAKOTA CITY SKY/WX TMP DP RH WIND PRES REMARKS ABERDEEN CLEAR 60 28 29 N8 30.02S WATERTOWN CLEAR 54 32 43 NW9 30.00R BROOKINGS CLEAR 57 36 45 NW6 30.00R SISSETON N/A 56 31 38 N9 29.99S $$ SDZ017-020-022-023-036>040-048>070-220000- SOUTHEAST SOUTH DAKOTA CITY SKY/WX TMP DP RH WIND PRES REMARKS SIOUX FALLS PTCLDY 61 40 45 N6 29.99R HURON CLEAR 60 29 30 N7 30.02R MITCHELL CLEAR 59 38 45 N7 30.02R YANKTON CLEAR 63 42 46 N8 29.99S $$ ABBREVIATIONS USED IN REMARKS TC - TEMPERATURE IN CELSIUS WCI - WIND CHILL INDEX HX - HEAT INDEX VSB - VISIBILITY ASUS43 KFSD 212302 RWRFSD WEATHER ROUNDUP FOR SE SOUTH DAKOTA/SW MINNESOTA/NW IOWA NATIONAL WEATHER SERVICE SIOUX FALLS SD 600 PM CDT SUN OCT 21 2018 NOTE: "FAIR" INDICATES FEW OR NO CLOUDS BELOW 12,000 FEET WITH NO SIGNIFICANT WEATHER AND OR OBSTRUCTIONS TO VISIBILITY. SDZ038>040-050-052>070-220000- SOUTHEAST SOUTH DAKOTA CITY SKY/WX TMP DP RH WIND PRES REMARKS BROOKINGS CLEAR 57 36 45 NW6 30.00R CHAMBERLAIN NOT AVBL HURON CLEAR 60 29 30 N7 30.02R MADISON FAIR 57 36 44 N8 30.00S MITCHELL CLEAR 59 38 45 N7 30.02R SIOUX FALLS PTCLDY 61 40 45 N6 29.99R WINNER FAIR 65 37 35 N7 30.04R YANKTON CLEAR 63 42 46 N8 29.99S $$ MNZ071-072-080-081-089-090-097-098-220000- SOUTHWEST MINNESOTA CITY SKY/WX TMP DP RH WIND PRES REMARKS FAIRMONT CLEAR 58 35 42 NW7 29.98S JACKSON PTCLDY 55 34 44 W6 29.99S LUVERNE CLEAR 61 32 33 CALM 29.99S MARSHALL CLEAR 57 34 41 N7 29.99R MONTEVIDEO CLEAR 55 27 33 N7 29.99S PIPESTONE CLEAR 61 37 41 N3 29.99S REDWOOD FALLS CLEAR 58 33 39 NW9 29.97S TRACY CLEAR 58 35 41 NW5 29.99R WORTHINGTON CLEAR 58 36 43 W5 30.00R $$ IAZ001>003-012>014-020>022-031-032-NEZ013-014-SDZ071-220000- NORTHWEST IOWA CITY SKY/WX TMP DP RH WIND PRES REMARKS CHEROKEE CLEAR 63 37 39 W5 29.99R DENISON CLEAR 64 39 39 SW7 30.00F ESTHERVILLE CLEAR 57 36 45 W7 29.98F ORANGE CITY CLEAR 63 39 42 NW3 29.99S SHELDON CLEAR 61 36 39 NW3 29.98S SIOUX CITY CLEAR 69 42 37 NW5 29.97S SPENCER CLEAR 59 39 47 NW7 29.99S STORM LAKE CLEAR 61 37 41 SW6 29.99S $$ ABBREVIATIONS USED IN REMARKS TC - TEMPERATURE IN CELSIUS WCI - WIND CHILL INDEX HX - HEAT INDEX VSB - VISIBILITY ASUS43 KFSD 212310 RWRFSD WEATHER ROUNDUP FOR SE SOUTH DAKOTA/SW MINNESOTA/NW IOWA NATIONAL WEATHER SERVICE SIOUX FALLS SD 600 PM CDT SUN OCT 21 2018 NOTE: "FAIR" INDICATES FEW OR NO CLOUDS BELOW 12,000 FEET WITH NO SIGNIFICANT WEATHER AND OR OBSTRUCTIONS TO VISIBILITY. SDZ038>040-050-052>070-220000- SOUTHEAST SOUTH DAKOTA CITY SKY/WX TMP DP RH WIND PRES REMARKS BROOKINGS CLEAR 57 36 45 NW6 30.00R CHAMBERLAIN CLEAR 66 40 38 CALM 30.03R HURON CLEAR 60 29 30 N7 30.02R MADISON FAIR 57 36 44 N8 30.00S MITCHELL CLEAR 59 38 45 N7 30.02R SIOUX FALLS PTCLDY 61 40 45 N6 29.99R WINNER FAIR 65 37 35 N7 30.04R YANKTON CLEAR 63 42 46 N8 29.99S $$ MNZ071-072-080-081-089-090-097-098-220000- SOUTHWEST MINNESOTA CITY SKY/WX TMP DP RH WIND PRES REMARKS FAIRMONT CLEAR 58 35 42 NW7 29.98S JACKSON PTCLDY 55 34 44 W6 29.99S LUVERNE CLEAR 61 32 33 CALM 29.99S MARSHALL CLEAR 57 34 41 N7 29.99R MONTEVIDEO CLEAR 55 27 33 N7 29.99S PIPESTONE CLEAR 61 37 41 N3 29.99S REDWOOD FALLS CLEAR 58 33 39 NW9 29.97S TRACY CLEAR 58 35 41 NW5 29.99R WORTHINGTON CLEAR 58 36 43 W5 30.00R $$ IAZ001>003-012>014-020>022-031-032-NEZ013-014-SDZ071-220000- NORTHWEST IOWA CITY SKY/WX TMP DP RH WIND PRES REMARKS CHEROKEE CLEAR 63 37 39 W5 29.99R DENISON CLEAR 64 39 39 SW7 30.00F ESTHERVILLE CLEAR 57 36 45 W7 29.98F ORANGE CITY CLEAR 63 39 42 NW3 29.99S SHELDON CLEAR 61 36 39 NW3 29.98S SIOUX CITY CLEAR 69 42 37 NW5 29.97S SPENCER CLEAR 59 39 47 NW7 29.99S STORM LAKE CLEAR 61 37 41 SW6 29.99S $$ ABBREVIATIONS USED IN REMARKS TC - TEMPERATURE IN CELSIUS WCI - WIND CHILL INDEX HX - HEAT INDEX VSB - VISIBILITY ASUS43 KFSD 212310 RWRSD WEATHER ROUNDUP FOR SOUTH DAKOTA NATIONAL WEATHER SERVICE SIOUX FALLS SD 600 PM CDT SUN OCT 21 2018 NOTE: "FAIR" INDICATES FEW OR NO CLOUDS BELOW 12,000 FEET WITH NO SIGNIFICANT WEATHER AND/OR OBSTRUCTIONS TO VISIBILITY. SDZ001>005-009-010-012>017-220000- NORTHWEST AND NORTH CENTRAL SOUTH DAKOTA CITY SKY/WX TMP DP RH WIND PRES REMARKS BUFFALO N/A 64 18 17 NE7 30.04S FAITH N/A 62 27 26 NE6 30.06S MOBRIDGE PTCLDY 62 33 33 N7 30.03R $$ SDZ012>016-024>037-041>051-057-063-072>074-220000- SOUTHWEST AND SOUTH CENTRAL SOUTH DAKOTA CITY SKY/WX TMP DP RH WIND PRES REMARKS RAPID CTY ARPT CLEAR 64 31 28 E6 30.07S PIERRE CLEAR 65 30 27 N9 30.02S CUSTER CLEAR 58 32 37 E8 30.13R ELLSWORTH AFB CLEAR 64 30 28 E5 30.06S PHILIP CLEAR 66 30 26 E7 30.04S PINE RIDGE CLEAR 68 35 29 NE9 30.06S SPEARFISH FAIR 59 34 38 E8 30.08F WINNER FAIR 65 37 35 N7 30.04R $$ SDZ004>011-016>023-039-040-220000- NORTHEAST SOUTH DAKOTA CITY SKY/WX TMP DP RH WIND PRES REMARKS ABERDEEN CLEAR 60 28 29 N8 30.02S WATERTOWN CLEAR 54 32 43 NW9 30.00R BROOKINGS CLEAR 57 36 45 NW6 30.00R SISSETON N/A 56 31 38 N9 29.99S $$ SDZ017-020-022-023-036>040-048>070-220000- SOUTHEAST SOUTH DAKOTA CITY SKY/WX TMP DP RH WIND PRES REMARKS SIOUX FALLS PTCLDY 61 40 45 N6 29.99R HURON CLEAR 60 29 30 N7 30.02R CHAMBERLAIN CLEAR 66 40 38 CALM 30.03R MITCHELL CLEAR 59 38 45 N7 30.02R YANKTON CLEAR 63 42 46 N8 29.99S $$ ABBREVIATIONS USED IN REMARKS TC - TEMPERATURE IN CELSIUS WCI - WIND CHILL INDEX HX - HEAT INDEX VSB - VISIBILITY
Office: EAX ASUS43 KEAX 212310 RWREAX WEATHER ROUNDUP FOR EASTERN KANSAS AND NORTHWEST MISSOURI NATIONAL WEATHER SERVICE KANSAS CITY/PLEASANT HILL MO 600 PM CDT SUN OCT 21 2018 KSZ040-057-103>105-MOZ028-029-037-043-220000- ...KANSAS CITY METROPOLITAN AREA... CITY SKY/WX TMP DP RH WIND PRES REMARKS K.C. INTL PTCLDY 61 39 44 SW10 30.12F K.C. DOWNTOWN CLEAR 63 38 39 S13 30.13F LEES SUMMIT CLEAR 61 38 42 S14 30.15F OLATHE - IXD CLEAR 61 40 45 S14 30.16F OLATHE - OJC CLEAR 60 40 47 S7 30.15F LAWRENCE CLEAR 63 40 42 S9 30.13F $$ MOZ001>008-011>017-020>025-030>033-038>040-044>046-053-054-220000- ...NORTHERN AND CENTRAL MISSOURI... CITY SKY/WX TMP DP RH WIND PRES REMARKS ST. JOSEPH CLEAR 64 41 42 S8 30.09F MOSBY CLEAR 63 34 34 S8 30.13F WARRENSBURG CLEAR 59 30 33 S9 30.17F WHITEMAN AFB CLEAR 57 32 38 S12 30.12F CLINTON NOT AVBL SEDALIA CLEAR 57 29 34 S12 30.19F WARSAW NOT AVBL CHILLICOTHE N/A 59 35 40 S9 30.13F KIRKSVILLE CLEAR 54 31 41 S9 30.11F $$ MOZ041-047>049-056>058-063>065-088>090-097-220000- ...EASTERN AND SOUTHERN MISSOURI... CITY SKY/WX TMP DP RH WIND PRES REMARKS ST. LOUIS INTL PTCLDY 54 25 32 S9 30.23F SPIRIT OF STL CLEAR 55 30 38 S3 30.22F COLUMBIA CLEAR 55 28 35 S9 30.19F JEFFERSON CITY CLEAR 58 29 33 S6 30.20F ROLLA CLEAR 54 29 38 S9 30.22F OSAGE BEACH CLEAR 58 30 34 S7 30.22F SPRINGFIELD CLEAR 56 35 45 S8 30.22F BRANSON PTCLDY 55 34 44 SE7 30.26F JOPLIN CLEAR 61 38 42 S6 30.22F WEST PLAINS CLEAR 54 31 41 S3 30.27F $$ IAZ060-094-KSZ022-034>040-054-083-096-NEZ052-066-093-220000- ...KANSAS...SOUTHEAST NEBRASKA AND IOWA... CITY SKY/WX TMP DP RH WIND PRES REMARKS TOPEKA CLEAR 66 39 37 S9 30.11F MANHATTAN CLEAR 67 44 43 S12G25 30.08F EMPORIA CLEAR 65 41 41 S9 30.14F CHANUTE CLEAR 60 42 51 S9 30.20S WICHITA MOCLDY 65 45 48 S13 30.14F OMAHA PTCLDY 69 39 33 S12 29.98S LINCOLN CLEAR 71 42 35 SW13 30.01R FALLS CITY CLEAR 65 40 39 S9 30.05F LAMONI CLEAR 57 36 45 S14 30.06F DES MOINES PTCLDY 58 36 43 SW9 30.04S $$